Location: Kalberh�ni
(46.4610°N, 7.2453°E)
Time: 02:52:33
(UTC+00:00)

Cosmos 1455 - Visible Passes

Search period start: 23 October 2021 00:00
Search period end: 02 November 2021 00:00
Orbit: 496 x 520 km, 82.5° (Epoch: 22 October)

Date Brightness Start Highest point End Pass type
(mag) Time Alt. Az. Time Alt. Az. Time Alt. Az.
24 Oct 2.7 05:31:40 10° N 05:35:23 64° E 05:39:05 10° SSE visible
25 Oct 3.2 05:14:26 10° N 05:18:05 49° ENE 05:21:42 10° SSE visible
25 Oct 4.7 19:05:58 10° SW 19:06:46 15° SW 19:06:46 15° SW visible
26 Oct 3.7 04:57:15 10° N 05:00:46 38° ENE 05:04:15 10° SE visible
26 Oct 3.9 17:15:19 10° ESE 17:16:54 13° E 17:16:54 13° E visible
26 Oct 3.1 18:48:32 10° SSW 18:51:54 47° W 18:51:54 47° W visible
27 Oct 4.2 04:40:06 10° NNE 04:43:26 30° ENE 04:46:44 10° SE visible
27 Oct 4.2 16:59:36 10° E 16:59:55 10° E 17:00:14 10° ENE visible
27 Oct 2.5 18:31:09 10° SSW 18:34:54 64° W 18:37:11 22° N visible
28 Oct 4.6 04:23:00 10° NNE 04:26:05 24° ENE 04:29:08 10° SE visible
28 Oct 2.1 18:13:49 10° S 18:17:37 83° W 18:21:25 10° N visible
29 Oct 5.0 04:05:59 10° NNE 04:08:43 19° ENE 04:11:26 10° ESE visible
29 Oct 2.0 17:56:33 10° S 18:00:20 76° E 18:04:07 10° NNE visible
30 Oct 5.2 03:49:03 10° NNE 03:51:19 15° ENE 03:53:36 10° ESE visible
30 Oct 2.5 05:23:35 10° NNW 05:27:07 41° W 05:30:37 10° SSW visible
30 Oct 2.1 17:39:21 10° S 17:43:04 57° E 17:46:46 10° NNE visible
30 Oct 5.5 19:17:31 10° W 19:19:01 12° WNW 19:20:30 10° NW visible
31 Oct 5.4 03:32:20 10° NE 03:33:56 12° ENE 03:35:31 10° E visible
31 Oct 2.2 05:06:12 10° NNW 05:09:52 53° W 05:13:29 10° S visible
31 Oct 2.4 17:22:12 10° SSE 17:25:48 43° E 17:29:24 10° NNE visible
31 Oct 5.2 18:59:23 10° WSW 19:01:37 15° WNW 19:03:50 10° NNW visible
01 Nov 2.0 04:48:51 10° NNW 04:52:35 71° W 04:56:18 10° S visible
01 Nov 2.8 17:05:08 10° SSE 17:08:33 34° E 17:11:58 10° NNE visible
01 Nov 5.0 18:41:31 10° WSW 18:44:13 18° WNW 18:46:55 10° NNW visible
